Regional Weather Roundup
Issued by NWS

Home | Current Version | Previous Version | Graphics & Text | Print | Product List | Glossary On
Versions: 1 2 3 4 5 6 7 8 9 10 11 12 13 14 15 16 17 18 19 20 21 22 23 24 25 26 27 28 29 30 31 32 33 34 35 36 37 38 39 40 41 42 43 44 45 46 47 48 49 50
000
ASUS45 KTFX 171119
RWRMT
MONTANA HOURLY WEATHER ROUNDUP
NATIONAL WEATHER SERVICE GREAT FALLS MT
519 AM MDT WED SEP 17 2014

NOTE: "FAIR" INDICATES FEW OR NO CLOUDS BELOW 12000 FEET WITH NO
SIGNIFICANT WEATHER AND/OR OBSTRUCTIONS TO VISIBILITY.

* THESE STATIONS ARE NOT UNDER NWS QUALITY CONTROL. THEY DO NOT
   REPORT WEATHER SUCH AS PRECIPITATION OR FOG.

MTZ001>007-043-171200-
WEST OF THE DIVIDE
CITY           SKY/WX    TMP DP  RH WIND       PRES   REMARKS
KALISPELL      MOCLDY    46  43  89 W3        29.89S
MISSOULA       CLEAR     50  45  83 CALM      29.94S
BUTTE          PTCLDY    43  37  79 CALM      30.06F
MULLAN PASS    PTCLDY    61  36  39 S6        30.02F
* ESSEX        N/A       46  43  89 N/A        N/A
* LINCOLN      N/A       40  38  93 N/A        N/A
* LOOKOUT PASS N/A       53  41  64 S2         N/A
* POLSON       N/A       55  39  55 N/A        N/A
* RONAN APT    PTCLDY    48  43  83 N/A        N/A
* SEELEY LAKE  N/A       41  37  86 N/A        N/A
* THOMP F APT  PTCLDY    52  36  55 NE3G11     N/A
$$

MTZ008-052>055-171200-
SOUTHWEST MONTANA
CITY           SKY/WX    TMP DP  RH WIND       PRES   REMARKS
BOZEMAN        PTCLDY    48  45  89 S5        30.01R
DILLON         PTCLDY    52  45  77 S7        30.04S
W YELLOWSTONE  PTCLDY    32  32 100 CALM      30.16S
* THREE FORKS  CLEAR     45  25  45 N/A        N/A
* BOULDER HILL N/A       51  42  71 S11        N/A
* RAYNOLDS PAS N/A       45  32  60 SW1        N/A
* WHITEHALL    N/A       45  41  86 NW1        N/A
* WISE RIVER   N/A       41  37  86 W3         N/A
$$

MTZ009>010-012-014-046-048-049-054-171200-
EAST SLOPES AND CENTRAL MONTANA
CITY           SKY/WX    TMP DP  RH WIND       PRES   REMARKS
CUT BANK       PTCLDY    50  41  71 N6        29.91S
GREAT FALLS    MOCLDY    57  46  67 S5        29.90F
HELENA         PTCLDY    54  46  74 CALM      29.96F
MALMSTROM AFB  MOCLDY    59  46  62 VRB2      29.92S
* CONRAD       MOCLDY    54  46  74 N/A        N/A
* EAST GLACIER N/A       49  39  69 NW8        N/A
* MONARCH      N/A       51  42  71 SE1G9      N/A
* PENDROY      N/A       61  41  48 NW5        N/A
* ROGERS PASS  N/A       52  40  64 SE3        N/A
* SAINT MARY   N/A       40  37  89 S3         N/A
* SWEET GRASS  N/A       60  37  43 SW8        N/A
* WHITE SULPH  N/A       53  48  83 NE6        N/A
$$

MTZ011-013-016-021-035-040-045-047-050-051-171200-
NORTH CENTRAL MONTANA
CITY           SKY/WX    TMP DP  RH WIND       PRES   REMARKS
HAVRE          CLOUDY    52  46  80 CALM      29.85F
LEWISTOWN      MOCLDY    52  45  77 E7        29.94F
* CHINOOK      CLOUDY    54  48  80 E5        29.86S
* FORT BENTON  MOCLDY    59  46  62 CALM      29.87F
* CHESTER      N/A       53  45  74 SW2        N/A
* DENTON       N/A       54  46  74 W2         N/A
* JUDITH GAP   N/A       63  46  54 NE6        N/A
* LOMA         N/A       56  49  77 SW2        N/A
$$

MTZ017>020-022>027-061-062-171200-
NORTHEAST MONTANA
CITY           SKY/WX    TMP DP  RH WIND       PRES   REMARKS
GLASGOW        MOCLDY    54  41  62 E12       29.88F
JORDAN         MOCLDY    48  46  93 CALM      29.89R
SIDNEY         PTCLDY    39  36  89 CALM      29.95R
WOLF POINT     MOCLDY    43  37  79 CALM      29.91S
* BEAVER HILL  N/A       50  44  80 SE10       N/A
* CIRCLE       N/A       47  43  86 N/A        N/A
* LINDSAY DVD  N/A       51  42  71 E2         N/A
* NAVAJO       N/A       52  36  55 SW4        N/A
* SACO         N/A       44  42  93 NE4        N/A
$$

MTZ028>042-056>058-171200-
SOUTHCENTRAL AND SOUTHEAST MONTANA
CITY           SKY/WX    TMP DP  RH WIND       PRES   REMARKS
BAKER          PTCLDY    45  45 100 E7        29.95R
BILLINGS       MOCLDY    59  45  60 SW9       29.93F
LIVINGSTON     PTCLDY    54  45  72 NW8       30.00R
MILES CITY     PTCLDY    50  46  86 N6        29.89F
* LAUREL APT   MOCLDY    57  45  64 W6         N/A
* ROUNDUP APT  PTCLDY    54  45  72 N/A        N/A
* ALZADA       N/A       48  43  83 W2         N/A
* HYSHAM       N/A       56  41  57 W6         N/A
* LAME DEER    N/A       66  35  32 W9         N/A
* REED POINT   N/A       55  48  77 W4         N/A
* ROSCOE HILL  N/A       61  37  41 SE9        N/A
$$

REGIONAL REPORTS...DAKOTAS
CITY           SKY/WX    TMP DP  RH WIND       PRES   REMARKS
WILLISTON      FOG       39  36  89 CALM      29.93S
DICKINSON      CLEAR     43  37  79 CALM      29.93S
BEACH          N/A       43  43 100 SE5       29.95S
CROSBY         CLEAR     45  41  86 SW9       29.93R
TIOGA          CLEAR     32  32 100 CALM      29.97S
WATFORD CITY   CLEAR     36  34  92 CALM      29.93R
BISMARCK       CLEAR     37  37 100 CALM      29.95R
GRAND FORKS    PTCLDY    45  43  93 CALM      29.92R
FARGO          CLEAR     46  45  96 CALM      29.90R
BUFFALO SD     PTCLDY    50  43  77 NE10      29.88S
RAPID CITY     PTCLDY    52  39  61 NW8       29.94S
$$

REGIONAL REPORTS...WYOMING/IDAHO/WASHINGTON
CITY           SKY/WX    TMP DP  RH WIND       PRES   REMARKS
GILLETTE       MOCLDY    66  37  34 SW10      29.98F
SHERIDAN       CLOUDY    63  46  54 N13       29.95F
CODY           PTCLDY    55  41  59 S6        30.05F
YELLOWSTONE LA CLEAR     36  34  92 CALM      30.24F
SALMON         PTCLDY    45  39  80 CALM      30.00S
MULLAN PASS    PTCLDY    61  36  39 S6        30.02S
SAND POINT     PTCLDY    46  46 100 CALM      29.86F
SPOKANE        CLOUDY    57  36  46 S3        29.84S
$$

REGIONAL REPORTS...ALBERTA
CITY           SKY/WX    TMP DP  RH WIND       PRES   REMARKS
CALGARY        N/A       46  41  83 SW3       29.89S
LETHBRIDGE     CLEAR     45  41  86 W7        29.87S
MEDICINE HAT   CLEAR     43  43 100 VRB2      29.85S
EDMONTON       FAIR      36  34  92 S5        29.82S WCI  32
WATERTON GATE  N/A       54  39  57 S9         N/A
CARDSTON       N/A       46  41  83 S2         N/A
$$

REGIONAL REPORTS...SASKATCHEWAN
CITY           SKY/WX    TMP DP  RH WIND       PRES   REMARKS
SWIFT CURRENT  CLEAR     50  41  71 SE7       29.89S
MOOSE JAW      N/A       45  41  86 E3        29.92R
REGINA         FAIR      46  45  96 E10       29.93R
VAL MARIE      N/A       39  39 100 E7         N/A   WCI  34
ASSINIBOIA     N/A       43  39  86 S3         N/A
CORONACH       N/A       36  34  92 W1         N/A

$$



USA.gov is the U.S. government's official web portal to all federal, state and local government web resources and services.